Location: Daytona Beach
(29.2106°N, 81.0231°W)
Time: 17:00:42
(UTC-04:00)

RS-15 - Pass Details

Date: 27 September 2021
Orbit: 1884 x 2160 km, 64.8° (Epoch: 26 October)

Event Time Altitude Azimuth Distance (km) Brightness Sun altitude
Rises 00:31:19 0° 337° (NNW) 5,636 10.9 -60.6°
Reaches altitude 10° 00:35:07 10° 345° (NNW) 4,653 10.3 -60.9°
Enters shadow 00:40:36 28° 4° (N) 3,428 9.4 -61.3°
